| time (UTC) | temp C | wind direction | speed KPH | gust KPH | rain 1hr cm | rain 24hr cm | rain mn cm | humidity % | barometer mb |
| 20260906221609 | 37 | 163 | 6.4 | 12.9 | 0.00 | 0.00 | 0.00 | 41 | 1010.7 |
| 20260906221100 | 37 | 131 | 4.8 | 11.3 | 0.00 | 0.00 | 0.00 | 41 | 1010.6 |
| 20260906220600 | 37 | 103 | 4.8 | 11.3 | 0.00 | 0.00 | 0.00 | 42 | 1010.6 |
| 20260906220107 | 37 | 124 | 6.4 | 14.5 | 0.00 | 0.00 | 0.00 | 42 | 1010.6 |
| 20260906215600 | 37 | 146 | 6.4 | 14.5 | 0.00 | 0.00 | 0.00 | 41 | 1010.7 |
| 20260906215100 | 37 | 122 | 6.4 | 12.9 | 0.00 | 0.00 | 0.00 | 42 | 1010.6 |
| 20260906214613 | 37 | 171 | 6.4 | 12.9 | 0.00 | 0.00 | 0.00 | 42 | 1010.8 |
| 20260906214100 | 37 | 221 | 6.4 | 16.1 | 0.00 | 0.00 | 0.00 | 42 | 1010.9 |
| 20260906213603 | 37 | 143 | 4.8 | 16.1 | 0.00 | 0.00 | 0.00 | 42 | 1011.0 |
| 20260906213108 | 37 | 219 | 6.4 | 16.1 | 0.00 | 0.00 | 0.00 | 42 | 1011.1 |
| 20260906212601 | 37 | 235 | 4.8 | 16.1 | 0.00 | 0.00 | 0.00 | 42 | 1011.2 |
| 20260906212100 | 37 | 63 | 4.8 | 16.1 | 0.00 | 0.00 | 0.00 | 43 | 1011.2 |
| 20260906211607 | 37 | 229 | 4.8 | 14.5 | 0.00 | 0.00 | 0.00 | 42 | 1011.3 |
| 20260906211100 | 37 | 41 | 8.0 | 19.3 | 0.00 | 0.00 | 0.00 | 41 | 1011.5 |
| 20260906210600 | 37 | 161 | 6.4 | 19.3 | 0.00 | 0.00 | 0.00 | 41 | 1011.7 |
| 20260906210113 | 37 | 18 | 6.4 | 14.5 | 0.00 | 0.00 | 0.00 | 42 | 1011.8 |
| 20260906205603 | 37 | 130 | 3.2 | 12.9 | 0.00 | 0.00 | 0.00 | 42 | 1011.8 |
| 20260906205059 | 37 | 155 | 6.4 | 17.7 | 0.00 | 0.00 | 0.00 | 42 | 1011.9 |
| 20260906204604 | 37 | 46 | 4.8 | 19.3 | 0.00 | 0.00 | 0.00 | 42 | 1011.9 |
| 20260906204102 | 37 | 121 | 8.0 | 19.3 | 0.00 | 0.00 | 0.00 | 41 | 1012.0 |
| 20260906203559 | 37 | 88 | 4.8 | 14.5 | 0.00 | 0.00 | 0.00 | 43 | 1011.9 |
| 20260906203108 | 37 | 162 | 6.4 | 14.5 | 0.00 | 0.00 | 0.00 | 44 | 1012.0 |
| 20260906202558 | 37 | 278 | 6.4 | 14.5 | 0.00 | 0.00 | 0.00 | 44 | 1012.1 |
| 20260906202058 | 36 | 165 | 6.4 | 16.1 | 0.00 | 0.00 | 0.00 | 42 | 1012.1 |
| 20260906201637 | 36 | 333 | 6.4 | 16.1 | 0.00 | 0.00 | 0.00 | 44 | 1012.2 |
| 20260906201100 | 36 | 129 | 6.4 | 16.1 | 0.00 | 0.00 | 0.00 | 44 | 1012.2 |
| 20260906200559 | 37 | 48 | 6.4 | 14.5 | 0.00 | 0.00 | 0.00 | 44 | 1012.3 |
| 20260906200105 | 37 | 277 | 6.4 | 16.1 | 0.00 | 0.00 | 0.00 | 44 | 1012.2 |
| 20260906195559 | 37 | 156 | 8.0 | 16.1 | 0.00 | 0.00 | 0.00 | 42 | 1012.2 |
| 20260906195059 | 37 | 156 | 4.8 | 14.5 | 0.00 | 0.00 | 0.00 | 42 | 1012.3 |
| 20260906194608 | 37 | 322 | 8.0 | 14.5 | 0.00 | 0.00 | 0.00 | 43 | 1012.4 |
| 20260906194058 | 37 | 227 | 4.8 | 17.7 | 0.00 | 0.00 | 0.00 | 43 | 1012.4 |
| 20260906193559 | 36 | 133 | 6.4 | 17.7 | 0.00 | 0.00 | 0.00 | 44 | 1012.5 |
| 20260906193106 | 36 | 124 | 6.4 | 17.7 | 0.00 | 0.00 | 0.00 | 43 | 1012.5 |
| 20260906192558 | 37 | 148 | 6.4 | 16.1 | 0.00 | 0.00 | 0.00 | 43 | 1012.5 |
| 20260906192059 | 36 | 167 | 8.0 | 16.1 | 0.00 | 0.00 | 0.00 | 45 | 1012.7 |
| 20260906191613 | 37 | 332 | 6.4 | 17.7 | 0.00 | 0.00 | 0.00 | 43 | 1012.7 |
| 20260906191058 | 36 | 221 | 8.0 | 22.5 | 0.00 | 0.00 | 0.00 | 45 | 1012.7 |
| 20260906190600 | 36 | 73 | 9.7 | 22.5 | 0.00 | 0.00 | 0.00 | 45 | 1012.8 |
| 20260906190108 | 36 | 32 | 6.4 | 16.1 | 0.00 | 0.00 | 0.00 | 46 | 1012.7 |
| 20260906185602 | 36 | 159 | 8.0 | 20.9 | 0.00 | 0.00 | 0.00 | 44 | 1012.8 |
| 20260906185059 | 36 | 139 | 8.0 | 20.9 | 0.00 | 0.00 | 0.00 | 45 | 1012.8 |
| 20260906184603 | 36 | 177 | 6.4 | 20.9 | 0.00 | 0.00 | 0.00 | 45 | 1012.9 |
| 20260906184058 | 36 | 65 | 6.4 | 17.7 | 0.00 | 0.00 | 0.00 | 47 | 1013.0 |
| 20260906183559 | 36 | 273 | 3.2 | 17.7 | 0.00 | 0.00 | 0.00 | 47 | 1013.0 |
| 20260906183106 | 36 | 167 | 8.0 | 17.7 | 0.00 | 0.00 | 0.00 | 47 | 1013.2 |
| 20260906182601 | 36 | 272 | 6.4 | 16.1 | 0.00 | 0.00 | 0.00 | 47 | 1013.1 |
| 20260906182104 | 36 | 103 | 6.4 | 16.1 | 0.00 | 0.00 | 0.00 | 48 | 1013.1 |
| 20260906181633 | 36 | 32 | 8.0 | 16.1 | 0.00 | 0.00 | 0.00 | 49 | 1013.2 |
| 20260906181059 | 36 | 360 | 6.4 | 16.1 | 0.00 | 0.00 | 0.00 | 48 | 1013.5 |
| 20260906180559 | 36 | 136 | 6.4 | 22.5 | 0.00 | 0.00 | 0.00 | 49 | 1013.5 |
| 20260906180107 | 35 | 221 | 6.4 | 22.5 | 0.00 | 0.00 | 0.00 | 50 | 1013.5 |
| 20260906175601 | 35 | 181 | 12.9 | 22.5 | 0.00 | 0.00 | 0.00 | 49 | 1013.6 |
| 20260906175100 | 35 | 26 | 11.3 | 22.5 | 0.00 | 0.00 | 0.00 | 48 | 1013.6 |
| 20260906174611 | 35 | 96 | 3.2 | 12.9 | 0.00 | 0.00 | 0.00 | 49 | 1013.9 |
| 20260906174059 | 35 | 250 | 4.8 | 12.9 | 0.00 | 0.00 | 0.00 | 52 | 1013.9 |
| 20260906173558 | 35 | 205 | 4.8 | 16.1 | 0.00 | 0.00 | 0.00 | 52 | 1014.0 |
| 20260906173111 | 35 | 67 | 8.0 | 17.7 | 0.00 | 0.00 | 0.00 | 52 | 1014.0 |
| 20260906172601 | 35 | 198 | 9.7 | 19.3 | 0.00 | 0.00 | 0.00 | 52 | 1014.1 |
| 20260906172100 | 34 | 205 | 8.0 | 19.3 | 0.00 | 0.00 | 0.00 | 53 | 1014.1 |
| 20260906171603 | 35 | 39 | 8.0 | 17.7 | 0.00 | 0.00 | 0.00 | 52 | 1014.1 |
| 20260906171059 | 35 | 50 | 4.8 | 16.1 | 0.00 | 0.00 | 0.00 | 52 | 1014.2 |
| 20260906170558 | 35 | 69 | 6.4 | 14.5 | 0.00 | 0.00 | 0.00 | 54 | 1014.3 |
| 20260906170107 | 35 | 136 | 4.8 | 14.5 | 0.00 | 0.00 | 0.00 | 54 | 1014.2 |
| 20260906165600 | 34 | 161 | 4.8 | 12.9 | 0.00 | 0.00 | 0.00 | 54 | 1014.3 |
| 20260906165059 | 34 | 54 | 4.8 | 12.9 | 0.00 | 0.00 | 0.00 | 54 | 1014.5 |
| 20260906164603 | 34 | 150 | 6.4 | 14.5 | 0.00 | 0.00 | 0.00 | 52 | 1014.5 |
| 20260906164059 | 34 | 81 | 4.8 | 14.5 | 0.00 | 0.00 | 0.00 | 54 | 1014.6 |
| 20260906163603 | 34 | 206 | 6.4 | 14.5 | 0.00 | 0.00 | 0.00 | 53 | 1014.6 |
| 20260906163112 | 34 | 251 | 4.8 | 14.5 | 0.00 | 0.00 | 0.00 | 54 | 1014.6 |
| 20260906162601 | 34 | 167 | 4.8 | 12.9 | 0.00 | 0.00 | 0.00 | 54 | 1014.7 |
| 20260906162102 | 34 | 92 | 3.2 | 12.9 | 0.00 | 0.00 | 0.00 | 54 | 1014.6 |
| 20260906161611 | 34 | 93 | 4.8 | 11.3 | 0.00 | 0.00 | 0.00 | 54 | 1014.5 |
| 20260906161058 | 33 | 329 | 6.4 | 11.3 | 0.00 | 0.00 | 0.00 | 56 | 1014.5 |
| 20260906160559 | 33 | 264 | 4.8 | 16.1 | 0.00 | 0.00 | 0.00 | 55 | 1014.5 |
| 20260906160114 | 33 | 249 | 1.6 | 22.5 | 0.00 | 0.00 | 0.00 | 57 | 1014.5 |
| 20260906155559 | 33 | 127 | 6.4 | 22.5 | 0.00 | 0.00 | 0.00 | 55 | 1014.5 |
| 20260906155102 | 33 | 34 | 6.4 | 12.9 | 0.00 | 0.00 | 0.00 | 55 | 1014.5 |
| 20260906154625 | 33 | 191 | 3.2 | 8.0 | 0.00 | 0.00 | 0.00 | 58 | 1014.5 |
| 20260906154059 | 33 | 189 | 3.2 | 9.7 | 0.00 | 0.00 | 0.00 | 59 | 1014.5 |
| 20260906153559 | 33 | 138 | 1.6 | 9.7 | 0.00 | 0.00 | 0.00 | 62 | 1014.4 |
| 20260906153115 | 33 | 25 | 3.2 | 11.3 | 0.00 | 0.00 | 0.00 | 60 | 1014.4 |
| 20260906152558 | 33 | 140 | 3.2 | 11.3 | 0.00 | 0.00 | 0.00 | 60 | 1014.3 |
| 20260906152100 | 33 | 226 | 1.6 | 9.7 | 0.00 | 0.00 | 0.00 | 63 | 1014.2 |
| 20260906151629 | 32 | 31 | 3.2 | 6.4 | 0.00 | 0.00 | 0.00 | 63 | 1014.1 |
| 20260906151059 | 32 | 51 | 3.2 | 8.0 | 0.00 | 0.00 | 0.00 | 63 | 1014.0 |
| 20260906150559 | 32 | 170 | 0.0 | 8.0 | 0.00 | 0.00 | 0.00 | 65 | 1014.0 |
| 20260906150107 | 32 | 13 | 3.2 | 8.0 | 0.00 | 0.00 | 0.00 | 65 | 1013.9 |
| 20260906145601 | 32 | 127 | 1.6 | 8.0 | 0.00 | 0.00 | 0.00 | 66 | 1014.0 |
| 20260906145101 | 31 | 30 | 0.0 | 8.0 | 0.00 | 0.00 | 0.00 | 66 | 1014.0 |
| 20260906144608 | 31 | 30 | 1.6 | 8.0 | 0.00 | 0.00 | 0.00 | 66 | 1013.9 |
| 20260906144100 | 31 | 75 | 1.6 | 6.4 | 0.00 | 0.00 | 0.00 | 68 | 1014.0 |
| 20260906143601 | 31 | 0 | 1.6 | 11.3 | 0.00 | 0.00 | 0.00 | 70 | 1013.9 |
| 20260906143108 | 30 | 139 | 3.2 | 11.3 | 0.00 | 0.00 | 0.00 | 68 | 1013.8 |
| 20260906142600 | 31 | 88 | 1.6 | 8.0 | 0.00 | 0.00 | 0.00 | 69 | 1013.8 |
| 20260906142101 | 30 | 120 | 4.8 | 8.0 | 0.00 | 0.00 | 0.00 | 69 | 1013.9 |
| 20260906141606 | 31 | 150 | 1.6 | 6.4 | 0.00 | 0.00 | 0.00 | 70 | 1014.0 |
| 20260906141100 | 30 | 53 | 0.0 | 4.8 | 0.00 | 0.00 | 0.00 | 71 | 1014.0 |
| 20260906140600 | 30 | 98 | 0.0 | 3.2 | 0.00 | 0.00 | 0.00 | 72 | 1014.1 |
| 20260906140109 | 30 | 160 | 0.0 | 4.8 | 0.00 | 0.00 | 0.00 | 72 | 1014.2 |
| 20260906135601 | 30 | 94 | 0.0 | 6.4 | 0.00 | 0.00 | 0.00 | 74 | 1014.1 |
| 20260906135103 | 29 | 114 | 1.6 | 6.4 | 0.00 | 0.00 | 0.00 | 75 | 1014.1 |
| 20260906134618 | 29 | 195 | 1.6 | 6.4 | 0.00 | 0.00 | 0.00 | 76 | 1014.1 |
| 20260906134101 | 28 | 0 | 0.0 | 3.2 | 0.00 | 0.00 | 0.00 | 77 | 1014.2 |
| 20260906133600 | 28 | 0 | 0.0 | 3.2 | 0.00 | 0.00 | 0.00 | 78 | 1014.3 |
| 20260906133119 | 28 | 105 | 0.0 | 3.2 | 0.00 | 0.00 | 0.00 | 79 | 1014.3 |
| 20260906132600 | 28 | 127 | 0.0 | 3.2 | 0.00 | 0.00 | 0.00 | 80 | 1014.4 |
| 20260906132103 | 27 | 118 | 1.6 | 3.2 | 0.00 | 0.00 | 0.00 | 80 | 1014.3 |
| 20260906131606 | 27 | 120 | 0.0 | 3.2 | 0.00 | 0.00 | 0.00 | 81 | 1014.2 |
| 20260906131100 | 27 | 0 | 0.0 | 3.2 | 0.00 | 0.00 | 0.00 | 80 | 1014.1 |
| 20260906130600 | 27 | 0 | 0.0 | 0.0 | 0.00 | 0.00 | 0.00 | 81 | 1014.1 |
| 20260906130113 | 26 | 0 | 0.0 | 0.0 | 0.00 | 0.00 | 0.00 | 82 | 1014.0 |
| 20260906125601 | 26 | 0 | 0.0 | 0.0 | 0.00 | 0.00 | 0.00 | 83 | 1013.9 |
| 20260906125105 | 26 | 0 | 0.0 | 0.0 | 0.00 | 0.00 | 0.00 | 84 | 1013.9 |
| 20260906124612 | 25 | 0 | 0.0 | 0.0 | 0.00 | 0.00 | 0.00 | 87 | 1013.9 |
| 20260906124101 | 24 | 0 | 0.0 | 0.0 | 0.00 | 0.00 | 0.00 | 87 | 1013.9 |
| 20260906123600 | 24 | 0 | 0.0 | 0.0 | 0.00 | 0.00 | 0.00 | 87 | 1013.9 |
| 20260906123104 | 23 | 0 | 0.0 | 0.0 | 0.00 | 0.00 | 0.00 | 88 | 1013.8 |
| 20260906122600 | 23 | 0 | 0.0 | 0.0 | 0.00 | 0.00 | 0.00 | 88 | 1013.8 |
| 20260906122059 | 23 | 0 | 0.0 | 0.0 | 0.00 | 0.00 | 0.00 | 88 | 1013.8 |
| 20260906121625 | 23 | 0 | 0.0 | 0.0 | 0.00 | 0.00 | 0.00 | 88 | 1013.7 |
| 20260906121101 | 23 | 0 | 0.0 | 0.0 | 0.00 | 0.00 | 0.00 | 88 | 1013.6 |
| 20260906120601 | 23 | 0 | 0.0 | 0.0 | 0.00 | 0.00 | 0.00 | 88 | 1013.5 |
| 20260906120104 | 23 | 0 | 0.0 | 0.0 | 0.00 | 0.00 | 0.00 | 87 | 1013.5 |
| 20260906115653 | 23 | 0 | 0.0 | 0.0 | 0.00 | 0.00 | 0.00 | 87 | 1013.5 |
| 20260906115100 | 23 | 0 | 0.0 | 0.0 | 0.00 | 0.00 | 0.00 | 87 | 1013.5 |
| 20260906114630 | 23 | 0 | 0.0 | 0.0 | 0.00 | 0.00 | 0.00 | 87 | 1013.5 |
| 20260906114100 | 24 | 0 | 0.0 | 0.0 | 0.00 | 0.00 | 0.00 | 87 | 1013.5 |
| 20260906113600 | 24 | 0 | 0.0 | 0.0 | 0.00 | 0.00 | 0.00 | 87 | 1013.4 |
| 20260906113114 | 24 | 0 | 0.0 | 0.0 | 0.00 | 0.00 | 0.00 | 86 | 1013.4 |
| 20260906112603 | 24 | 0 | 0.0 | 0.0 | 0.00 | 0.00 | 0.00 | 86 | 1013.3 |
| 20260906112101 | 24 | 0 | 0.0 | 0.0 | 0.00 | 0.00 | 0.00 | 86 | 1013.2 |
| 20260906111604 | 24 | 0 | 0.0 | 0.0 | 0.00 | 0.00 | 0.00 | 86 | 1013.3 |
| 20260906111101 | 24 | 0 | 0.0 | 0.0 | 0.00 | 0.00 | 0.00 | 85 | 1013.2 |
| 20260906110601 | 24 | 0 | 0.0 | 0.0 | 0.00 | 0.00 | 0.00 | 85 | 1013.1 |
| 20260906110116 | 25 | 0 | 0.0 | 0.0 | 0.00 | 0.00 | 0.00 | 85 | 1013.1 |
| 20260906105601 | 25 | 0 | 0.0 | 0.0 | 0.00 | 0.00 | 0.00 | 85 | 1013.0 |
| 20260906105101 | 25 | 0 | 0.0 | 0.0 | 0.00 | 0.00 | 0.00 | 85 | 1013.0 |
| 20260906104605 | 25 | 0 | 0.0 | 1.6 | 0.00 | 0.00 | 0.00 | 85 | 1013.0 |
| 20260906104100 | 25 | 0 | 0.0 | 1.6 | 0.00 | 0.00 | 0.00 | 85 | 1012.9 |
| 20260906103601 | 25 | 0 | 0.0 | 1.6 | 0.00 | 0.00 | 0.00 | 85 | 1013.0 |
| 20260906103114 | 24 | 117 | 0.0 | 1.6 | 0.00 | 0.00 | 0.00 | 85 | 1012.9 |
| 20260906102601 | 25 | 133 | 0.0 | 1.6 | 0.00 | 0.00 | 0.00 | 86 | 1012.8 |
| 20260906102104 | 25 | 142 | 0.0 | 1.6 | 0.00 | 0.00 | 0.00 | 86 | 1012.9 |
| 20260906101606 | 25 | 0 | 0.0 | 1.6 | 0.00 | 0.00 | 0.00 | 86 | 1012.8 |
| 20260906101101 | 25 | 0 | 0.0 | 1.6 | 0.00 | 0.00 | 0.00 | 85 | 1012.8 |
| 20260906100601 | 25 | 0 | 0.0 | 0.0 | 0.00 | 0.00 | 0.00 | 84 | 1012.7 |
| 20260906100112 | 25 | 0 | 0.0 | 0.0 | 0.00 | 0.00 | 0.00 | 84 | 1012.7 |
| 20260906095601 | 25 | 0 | 0.0 | 0.0 | 0.00 | 0.00 | 0.00 | 84 | 1012.6 |
| 20260906095101 | 25 | 0 | 0.0 | 0.0 | 0.00 | 0.00 | 0.00 | 84 | 1012.6 |
| 20260906094605 | 25 | 0 | 0.0 | 0.0 | 0.00 | 0.00 | 0.00 | 84 | 1012.6 |
| 20260906094100 | 25 | 0 | 0.0 | 0.0 | 0.00 | 0.00 | 0.00 | 84 | 1012.6 |
| 20260906093601 | 25 | 0 | 0.0 | 0.0 | 0.00 | 0.00 | 0.00 | 84 | 1012.5 |
| 20260906093109 | 25 | 0 | 0.0 | 0.0 | 0.00 | 0.00 | 0.00 | 84 | 1012.5 |
| 20260906092600 | 25 | 0 | 0.0 | 0.0 | 0.00 | 0.00 | 0.00 | 83 | 1012.4 |
| 20260906092101 | 25 | 0 | 0.0 | 0.0 | 0.00 | 0.00 | 0.00 | 83 | 1012.4 |
| 20260906091614 | 25 | 0 | 0.0 | 0.0 | 0.00 | 0.00 | 0.00 | 83 | 1012.3 |
| 20260906091103 | 25 | 0 | 0.0 | 0.0 | 0.00 | 0.00 | 0.00 | 83 | 1012.2 |
| 20260906090600 | 25 | 0 | 0.0 | 0.0 | 0.00 | 0.00 | 0.00 | 83 | 1012.2 |
| 20260906090111 | 25 | 0 | 0.0 | 0.0 | 0.00 | 0.00 | 0.00 | 82 | 1012.2 |
| 20260906085601 | 25 | 0 | 0.0 | 0.0 | 0.00 | 0.00 | 0.00 | 82 | 1012.2 |
| 20260906085101 | 25 | 0 | 0.0 | 0.0 | 0.00 | 0.00 | 0.00 | 82 | 1012.2 |
| 20260906084607 | 25 | 0 | 0.0 | 0.0 | 0.00 | 0.00 | 0.00 | 82 | 1012.2 |
| 20260906084100 | 25 | 0 | 0.0 | 0.0 | 0.00 | 0.00 | 0.00 | 82 | 1012.3 |
| 20260906083559 | 25 | 0 | 0.0 | 0.0 | 0.00 | 0.00 | 0.00 | 82 | 1012.2 |
| 20260906083107 | 25 | 0 | 0.0 | 0.0 | 0.00 | 0.00 | 0.00 | 82 | 1012.3 |
| 20260906082558 | 25 | 0 | 0.0 | 0.0 | 0.00 | 0.00 | 0.00 | 81 | 1012.2 |
| 20260906082059 | 26 | 0 | 0.0 | 0.0 | 0.00 | 0.00 | 0.00 | 80 | 1012.0 |
| 20260906081606 | 26 | 0 | 0.0 | 0.0 | 0.00 | 0.00 | 0.00 | 80 | 1012.0 |
| 20260906081059 | 26 | 0 | 0.0 | 1.6 | 0.00 | 0.00 | 0.00 | 80 | 1011.9 |
| 20260906080559 | 26 | 0 | 0.0 | 1.6 | 0.00 | 0.00 | 0.00 | 80 | 1012.0 |
| 20260906080111 | 26 | 0 | 0.0 | 1.6 | 0.00 | 0.00 | 0.00 | 80 | 1012.0 |
| 20260906075559 | 26 | 144 | 0.0 | 1.6 | 0.00 | 0.00 | 0.00 | 79 | 1012.0 |
| 20260906075059 | 26 | 155 | 0.0 | 0.0 | 0.00 | 0.00 | 0.00 | 79 | 1012.1 |
| 20260906074602 | 26 | 0 | 0.0 | 0.0 | 0.00 | 0.00 | 0.00 | 79 | 1012.1 |
| 20260906074058 | 26 | 0 | 0.0 | 0.0 | 0.00 | 0.00 | 0.00 | 79 | 1012.2 |
| 20260906073559 | 26 | 0 | 0.0 | 0.0 | 0.00 | 0.00 | 0.00 | 79 | 1012.3 |
| 20260906073105 | 26 | 0 | 0.0 | 0.0 | 0.00 | 0.00 | 0.00 | 79 | 1012.3 |
| 20260906072559 | 26 | 0 | 0.0 | 0.0 | 0.00 | 0.00 | 0.00 | 79 | 1012.4 |
| 20260906072100 | 26 | 0 | 0.0 | 0.0 | 0.00 | 0.00 | 0.00 | 79 | 1012.4 |
| 20260906071616 | 26 | 0 | 0.0 | 0.0 | 0.00 | 0.00 | 0.00 | 78 | 1012.4 |
| 20260906071058 | 26 | 0 | 0.0 | 0.0 | 0.00 | 0.00 | 0.00 | 78 | 1012.5 |
| 20260906070600 | 26 | 0 | 0.0 | 0.0 | 0.00 | 0.00 | 0.00 | 78 | 1012.4 |
| 20260906070106 | 26 | 0 | 0.0 | 0.0 | 0.00 | 0.00 | 0.00 | 78 | 1012.6 |
| 20260906065559 | 26 | 0 | 0.0 | 0.0 | 0.00 | 0.00 | 0.00 | 77 | 1012.4 |
| 20260906065059 | 26 | 0 | 0.0 | 0.0 | 0.00 | 0.00 | 0.00 | 77 | 1012.4 |
| 20260906064606 | 26 | 0 | 0.0 | 0.0 | 0.00 | 0.00 | 0.00 | 77 | 1012.3 |
| 20260906064059 | 26 | 0 | 0.0 | 0.0 | 0.00 | 0.00 | 0.00 | 76 | 1012.3 |
| 20260906063600 | 26 | 0 | 0.0 | 0.0 | 0.00 | 0.00 | 0.00 | 76 | 1012.4 |
| 20260906063105 | 26 | 0 | 0.0 | 0.0 | 0.00 | 0.00 | 0.00 | 76 | 1012.5 |
| 20260906062601 | 26 | 0 | 0.0 | 0.0 | 0.00 | 0.00 | 0.00 | 76 | 1012.4 |
| 20260906062058 | 26 | 0 | 0.0 | 0.0 | 0.00 | 0.00 | 0.00 | 75 | 1012.4 |
| 20260906061606 | 27 | 0 | 0.0 | 0.0 | 0.00 | 0.00 | 0.00 | 75 | 1012.4 |
| 20260906061059 | 27 | 0 | 0.0 | 0.0 | 0.00 | 0.00 | 0.00 | 75 | 1012.3 |
| 20260906060559 | 27 | 0 | 0.0 | 1.6 | 0.00 | 0.00 | 0.00 | 75 | 1012.3 |
| 20260906060155 | 27 | 0 | 0.0 | 1.6 | 0.00 | 0.00 | 0.00 | 74 | 1012.4 |
| 20260906055559 | 27 | 120 | 0.0 | 1.6 | 0.00 | 0.00 | 0.00 | 73 | 1012.4 |
| 20260906055059 | 27 | 0 | 0.0 | 0.0 | 0.00 | 0.00 | 0.00 | 73 | 1012.5 |
| 20260906054616 | 27 | 0 | 0.0 | 0.0 | 0.00 | 0.00 | 0.00 | 73 | 1012.5 |
| 20260906054059 | 27 | 0 | 0.0 | 0.0 | 0.00 | 0.00 | 0.00 | 72 | 1012.5 |
| 20260906053600 | 27 | 0 | 0.0 | 0.0 | 0.00 | 0.00 | 0.00 | 72 | 1012.5 |
| 20260906053105 | 27 | 0 | 0.0 | 0.0 | 0.00 | 0.00 | 0.00 | 72 | 1012.6 |
| 20260906052600 | 27 | 0 | 0.0 | 0.0 | 0.00 | 0.00 | 0.00 | 72 | 1012.7 |
| 20260906052105 | 27 | 0 | 0.0 | 0.0 | 0.00 | 0.00 | 0.00 | 71 | 1012.8 |
| 20260906051606 | 27 | 0 | 0.0 | 0.0 | 0.00 | 0.00 | 0.00 | 71 | 1012.8 |
| 20260906051101 | 27 | 0 | 0.0 | 0.0 | 0.00 | 0.00 | 0.00 | 70 | 1012.7 |
| 20260906050602 | 28 | 0 | 0.0 | 0.0 | 0.00 | 0.00 | 0.00 | 70 | 1012.7 |
| 20260906050116 | 28 | 0 | 0.0 | 0.0 | 0.00 | 0.00 | 0.00 | 70 | 1012.7 |
| 20260906045600 | 28 | 0 | 0.0 | 0.0 | 0.00 | 0.00 | 0.00 | 69 | 1012.7 |
| 20260906045101 | 28 | 0 | 0.0 | 0.0 | 0.00 | 0.00 | 0.00 | 68 | 1012.5 |
| 20260906044606 | 28 | 0 | 0.0 | 0.0 | 0.00 | 0.00 | 0.00 | 68 | 1012.5 |
| 20260906044104 | 28 | 0 | 0.0 | 0.0 | 0.00 | 0.00 | 0.00 | 67 | 1012.4 |
| 20260906043600 | 28 | 0 | 0.0 | 1.6 | 0.00 | 0.00 | 0.00 | 67 | 1012.5 |
| 20260906043110 | 28 | 0 | 0.0 | 3.2 | 0.00 | 0.00 | 0.00 | 66 | 1012.5 |
| 20260906042601 | 29 | 0 | 0.0 | 3.2 | 0.00 | 0.00 | 0.00 | 66 | 1012.5 |
| 20260906042101 | 29 | 160 | 0.0 | 3.2 | 0.00 | 0.00 | 0.00 | 66 | 1012.4 |
| 20260906041605 | 29 | 146 | 0.0 | 3.2 | 0.00 | 0.00 | 0.00 | 65 | 1012.4 |
| 20260906041100 | 29 | 0 | 0.0 | 3.2 | 0.00 | 0.00 | 0.00 | 65 | 1012.5 |
| 20260906040601 | 29 | 174 | 0.0 | 4.8 | 0.00 | 0.00 | 0.00 | 64 | 1012.4 |
| 20260906040109 | 30 | 0 | 0.0 | 4.8 | 0.00 | 0.00 | 0.00 | 64 | 1012.4 |
| 20260906035600 | 30 | 174 | 1.6 | 6.4 | 0.00 | 0.00 | 0.00 | 64 | 1012.4 |
| 20260906035101 | 30 | 153 | 1.6 | 6.4 | 0.00 | 0.00 | 0.00 | 63 | 1012.4 |
| 20260906034608 | 30 | 153 | 1.6 | 4.8 | 0.00 | 0.00 | 0.00 | 63 | 1012.5 |
| 20260906034100 | 30 | 139 | 1.6 | 3.2 | 0.00 | 0.00 | 0.00 | 63 | 1012.6 |
| 20260906033600 | 30 | 147 | 1.6 | 4.8 | 0.00 | 0.00 | 0.00 | 62 | 1012.6 |
| 20260906033111 | 30 | 134 | 1.6 | 6.4 | 0.00 | 0.00 | 0.00 | 62 | 1012.5 |
| 20260906032601 | 30 | 141 | 1.6 | 8.0 | 0.00 | 0.00 | 0.00 | 62 | 1012.5 |
| 20260906032101 | 30 | 150 | 1.6 | 8.0 | 0.00 | 0.00 | 0.00 | 61 | 1012.5 |
| 20260906031630 | 30 | 178 | 3.2 | 8.0 | 0.00 | 0.00 | 0.00 | 61 | 1012.6 |
| 20260906031101 | 30 | 273 | 3.2 | 8.0 | 0.00 | 0.00 | 0.00 | 60 | 1012.6 |
| 20260906030601 | 30 | 117 | 3.2 | 11.3 | 0.00 | 0.00 | 0.00 | 60 | 1012.5 |
| 20260906030109 | 31 | 162 | 3.2 | 11.3 | 0.00 | 0.00 | 0.00 | 60 | 1012.5 |
| 20260906025600 | 31 | 137 | 4.8 | 16.1 | 0.00 | 0.00 | 0.00 | 59 | 1012.5 |
| 20260906025105 | 31 | 148 | 4.8 | 16.1 | 0.00 | 0.00 | 0.00 | 60 | 1012.4 |
| 20260906024607 | 31 | 136 | 4.8 | 12.9 | 0.00 | 0.00 | 0.00 | 59 | 1012.3 |
| 20260906024104 | 31 | 128 | 4.8 | 17.7 | 0.00 | 0.00 | 0.00 | 58 | 1012.3 |
| 20260906023603 | 31 | 195 | 4.8 | 17.7 | 0.00 | 0.00 | 0.00 | 58 | 1012.2 |
| 20260906023113 | 31 | 205 | 4.8 | 11.3 | 0.00 | 0.00 | 0.00 | 58 | 1012.0 |
| 20260906022101 | 31 | 162 | 4.8 | 19.3 | 0.00 | 0.00 | 0.00 | 57 | 1011.9 |
| 20260906021612 | 32 | 217 | 6.4 | 9.7 | 0.00 | 0.00 | 0.00 | 57 | 1011.8 |
| 20260906021101 | 32 | 205 | 4.8 | 9.7 | 0.00 | 0.00 | 0.00 | 56 | 1011.8 |
| 20260906020601 | 32 | 127 | 4.8 | 19.3 | 0.00 | 0.00 | 0.00 | 55 | 1011.7 |
| 20260906020106 | 32 | 200 | 8.0 | 19.3 | 0.00 | 0.00 | 0.00 | 55 | 1011.6 |
| 20260906015601 | 32 | 209 | 3.2 | 8.0 | 0.00 | 0.00 | 0.00 | 53 | 1011.5 |
| 20260906015101 | 32 | 155 | 1.6 | 4.8 | 0.00 | 0.00 | 0.00 | 52 | 1011.4 |
| 20260906014609 | 32 | 151 | 1.6 | 3.2 | 0.00 | 0.00 | 0.00 | 52 | 1011.2 |
| 20260906014101 | 32 | 110 | 1.6 | 3.2 | 0.00 | 0.00 | 0.00 | 51 | 1011.1 |
| 20260906013601 | 32 | 124 | 1.6 | 3.2 | 0.00 | 0.00 | 0.00 | 51 | 1011.0 |
| 20260906013109 | 32 | 137 | 0.0 | 3.2 | 0.00 | 0.00 | 0.00 | 50 | 1011.0 |
| 20260906012601 | 32 | 117 | 0.0 | 3.2 | 0.00 | 0.00 | 0.00 | 50 | 1010.9 |
| 20260906012100 | 32 | 113 | 0.0 | 1.6 | 0.00 | 0.00 | 0.00 | 49 | 1010.8 |
| 20260906011615 | 33 | 0 | 0.0 | 0.0 | 0.00 | 0.00 | 0.00 | 48 | 1010.7 |
| 20260906011100 | 33 | 0 | 0.0 | 1.6 | 0.00 | 0.00 | 0.00 | 48 | 1010.7 |
| 20260906010600 | 33 | 0 | 0.0 | 1.6 | 0.00 | 0.00 | 0.00 | 47 | 1010.6 |
| 20260906010114 | 33 | 0 | 0.0 | 4.8 | 0.00 | 0.00 | 0.00 | 47 | 1010.6 |
| 20260906005600 | 33 | 0 | 0.0 | 4.8 | 0.00 | 0.00 | 0.00 | 46 | 1010.6 |
| 20260906005101 | 34 | 127 | 0.0 | 4.8 | 0.00 | 0.00 | 0.00 | 45 | 1010.6 |
| 20260906004608 | 34 | 112 | 1.6 | 3.2 | 0.00 | 0.00 | 0.00 | 45 | 1010.6 |
| 20260906004101 | 35 | 106 | 0.0 | 6.4 | 0.00 | 0.00 | 0.00 | 44 | 1010.7 |
| 20260906003601 | 35 | 134 | 1.6 | 6.4 | 0.00 | 0.00 | 0.00 | 43 | 1010.6 |
| 20260906003108 | 35 | 136 | 1.6 | 6.4 | 0.00 | 0.00 | 0.00 | 43 | 1010.6 |
| 20260906002603 | 35 | 115 | 1.6 | 8.0 | 0.00 | 0.00 | 0.00 | 42 | 1010.6 |
| 20260906002101 | 36 | 150 | 1.6 | 8.0 | 0.00 | 0.00 | 0.00 | 42 | 1010.6 |
| 20260906001615 | 36 | 105 | 3.2 | 8.0 | 0.00 | 0.00 | 0.00 | 42 | 1010.6 |
| 20260906001100 | 36 | 105 | 4.8 | 9.7 | 0.00 | 0.00 | 0.00 | 41 | 1010.6 |
| 20260906000600 | 36 | 101 | 1.6 | 11.3 | 0.00 | 0.00 | 0.00 | 41 | 1010.6 |
| 20260906000110 | 36 | 221 | 1.6 | 11.3 | 0.00 | 0.00 | 0.00 | 41 | 1010.5 |
| 20260905235600 | 36 | 98 | 6.4 | 11.3 | 0.00 | 0.00 | 0.00 | 40 | 1010.6 |
| 20260905235101 | 36 | 141 | 3.2 | 8.0 | 0.00 | 0.00 | 0.00 | 41 | 1010.5 |
| 20260905234602 | 36 | 216 | 1.6 | 8.0 | 0.00 | 0.00 | 0.00 | 40 | 1010.4 |
| 20260905234104 | 36 | 49 | 1.6 | 11.3 | 0.00 | 0.00 | 0.00 | 40 | 1010.4 |
| 20260905233601 | 37 | 248 | 3.2 | 11.3 | 0.00 | 0.00 | 0.00 | 40 | 1010.4 |
| 20260905233108 | 37 | 60 | 1.6 | 8.0 | 0.00 | 0.00 | 0.00 | 39 | 1010.4 |
| 20260905232600 | 37 | 78 | 3.2 | 8.0 | 0.00 | 0.00 | 0.00 | 39 | 1010.4 |
| 20260905232101 | 37 | 60 | 3.2 | 8.0 | 0.00 | 0.00 | 0.00 | 39 | 1010.4 |
| 20260905231619 | 37 | 0 | 1.6 | 8.0 | 0.00 | 0.00 | 0.00 | 40 | 1010.4 |
| 20260905231101 | 37 | 158 | 1.6 | 8.0 | 0.00 | 0.00 | 0.00 | 39 | 1010.4 |
| 20260905230601 | 37 | 245 | 1.6 | 8.0 | 0.00 | 0.00 | 0.00 | 39 | 1010.4 |
| 20260905230112 | 37 | 184 | 1.6 | 8.0 | 0.00 | 0.00 | 0.00 | 39 | 1010.4 |
| 20260905225600 | 37 | 134 | 3.2 | 8.0 | 0.00 | 0.00 | 0.00 | 39 | 1010.5 |
| 20260905225101 | 37 | 226 | 1.6 | 14.5 | 0.00 | 0.00 | 0.00 | 38 | 1010.4 |
| 20260905224609 | 37 | 240 | 3.2 | 14.5 | 0.00 | 0.00 | 0.00 | 38 | 1010.4 |
| 20260905224101 | 37 | 122 | 4.8 | 14.5 | 0.00 | 0.00 | 0.00 | 38 | 1010.4 |
| 20260905223600 | 37 | 0 | 3.2 | 9.7 | 0.00 | 0.00 | 0.00 | 39 | 1010.4 |
| 20260905223106 | 37 | 118 | 4.8 | 9.7 | 0.00 | 0.00 | 0.00 | 39 | 1010.4 |
| 20260905222601 | 37 | 218 | 3.2 | 11.3 | 0.00 | 0.00 | 0.00 | 38 | 1010.4 |
| 20260905222101 | 37 | 133 | 3.2 | 11.3 | 0.00 | 0.00 | 0.00 | 39 | 1010.5 |